Starlink 3226

operational
NORAD ID: 49740 Int'l Des: 2021-115 Owner: SPXS Country: US Constellation: starlink
LEOCIRCULAR

Über Starlink 3226

Beschreibung wird geladen...

Live-Position

3D-Globus wird geladen...

Nächste Überflüge

Höhenverlauf

Altitude vs Time

uPlot chart will show altitude changes over time

Zweizeiliger Elementsatz

1 49740U 21115S 25350.75454831 .00001122 00000-0 88579-4 0 9993
2 49740 53.2160 161.4016 0001365 88.1780 271.9369 15.08841498223012
Epoch: 16. Dez. 2025 • Age: 15 hours

Aktueller Status

Höhe 545.0 km
Geschwindigkeit 7.60 km/s
Subsatellitenpunkt 51.51°N, 50.1°E
Startdatum 2. Dez. 2021
Alter 4 years
Typ internet

Technische Details

Klassifizierung Payload
Masse 290.00 kg
Trockenmasse 270.00 kg
Gesamtmasse 290.00 kg
Länge 0.20 m
Durchmesser 2.80 m
Spannweite 9.00 m
Form Box + pan
Hersteller SPXS
Bus-Typ Starlink
Phasenstatus In Orbit
Besitzer/Staat SPXS/US

Große Konstellationen

Loading constellations...